Dewpoint
25 24 23 23 22 22 19 17 14 12 10 10 11 11 12 12 14 14 14 16 17 15 13 12 13 12 14 11 11 9 10 8 9 9 9 10 9 9 9 10 10 10
25 25 26 24 23 22 18 16 15 13 12 11 11 11 12 13 14 15 15 17 18 16 13 12 12 11 11 10 10 8 9 9 8 10 8 9 9 10 9 10 10 10
25 24 24 23 22 20 18 14 14 13 12 11 11 11 13 15 15 15 16 17 16 15 13 11 11 12 11 10 10 9 9 9 8 10 11 8 9 9 9 9 9 9
25 24 23 23 22 20 19 15 13 13 12 12 10 12 13 16 15 16 17 20 16 15 13 12 11 11 12 10 11 8 8 8 9 9 10 10 10 9 9 9 11 9
25 24 23 22 22 21 19 17 14 13 12 12 12 13 15 16 16 18 18 19 16 14 12 11 11 11 11 10 10 8 9 9 9 9 9 9 9 10 10 10 10 10
25 24 24 22 21 20 18 17 16 15 15 14 14 15 14 17 19 18 18 17 16 14 12 11 10 10 10 9 9 8 8 9 9 9 9 9 9 10 10 11 11 11
24 23 22 22 21 19 17 16 16 17 15 15 15 14 15 16 18 17 18 18 16 15 12 11 10 9 9 9 9 9 9 9 9 9 9 9 10 10 11 11 12 11
24 23 22 20 19 18 17 16 16 16 16 16 15 14 15 17 16 17 17 17 16 14 13 11 10 9 9 9 10 9 9 9 9 9 9 9 10 10 11 11 11 11
23 22 21 19 18 17 16 16 15 16 17 16 15 15 17 17 17 16 16 16 16 14 13 11 10 9 10 10 10 10 9 9 9 10 10 10 10 10 11 11 11 12
22 21 20 18 17 17 16 15 15 16 17 16 15 17 17 18 18 16 16 15 15 14 12 10 9 10 10 11 10 10 9 9 10 10 11 11 11 11 11 11 10 10
22 21 19 18 17 16 16 15 16 15 17 17 16 17 19 18 19 17 16 15 15 14 13 11 11 11 11 11 10 10 10 10 12 13 13 12 11 11 13 11 10 10
23 20 19 18 17 17 16 16 16 15 16 18 20 16 18 17 18 18 17 17 16 15 14 13 12 12 11 10 10 10 10 13 13 13 13 12 12 11 12 12 11 10
24 22 20 19 18 17 16 17 16 15 16 16 19 18 17 18 19 18 19 18 17 17 16 14 13 12 11 11 10 10 13 13 13 13 12 12 12 11 11 12 11 10
25 24 22 20 18 18 17 16 16 16 16 16 19 19 19 19 19 19 19 19 17 17 16 15 14 12 12 11 13 13 13 13 13 13 12 11 11 11 11 10 10 9
27 25 22 20 19 17 16 16 16 16 17 17 19 19 19 18 19 19 19 19 17 16 17 16 15 14 13 13 14 14 14 13 13 11 11 12 11 11 11 11 10 10
28 25 23 21 19 18 17 16 16 16 17 16 18 19 19 19 19 19 19 19 17 17 17 16 15 14 15 17 17 14 14 13 13 11 11 11 11 11 11 11 10 10
28 27 24 21 20 18 17 17 16 16 16 17 18 18 19 20 19 19 18 18 18 17 16 16 15 15 18 19 20 19 15 13 13 12 11 11 11 12 11 11 11 10
29 28 25 22 20 19 17 17 16 17 16 16 18 17 18 19 19 19 18 18 18 18 17 16 16 18 20 20 21 21 20 15 13 12 13 12 12 11 11 11 11 10
31 29 27 24 22 21 18 18 17 16 16 15 16 17 17 18 19 18 18 18 18 17 17 17 17 19 21 22 22 22 23 20 13 12 12 12 11 11 11 11 11 11
31 30 29 27 25 22 20 19 18 16 16 16 16 17 17 18 18 18 19 18 18 17 17 17 17 19 22 23 23 23 23 22 17 13 12 12 11 11 11 11 11 12
32 32 31 29 27 25 22 20 19 18 18 17 17 17 17 18 18 18 18 18 18 17 17 17 17 20 22 22 23 23 24 22 20 16 14 12 12 11 11 12 13 13
32 32 32 31 29 26 23 21 20 19 19 18 17 17 18 18 18 18 18 18 18 18 17 17 17 22 22 23 23 24 23 21 20 18 15 14 13 13 12 13 13 13
32 32 32 32 30 27 24 22 21 20 19 19 18 17 16 16 18 17 17 17 17 17 17 17 17 20 23 23 23 24 23 20 20 19 18 16 15 15 14 13 12 12
32 32 32 31 31 28 26 24 22 21 20 18 17 17 16 16 16 17 17 17 17 17 17 16 16 18 22 23 24 24 22 20 19 18 18 17 16 15 14 13 12 16
32 32 32 31 30 29 27 25 23 21 20 19 17 17 17 16 18 17 16 16 16 16 19 17 16 17 21 23 24 24 22 20 19 18 17 16 14 12 12 12 11 14
32 31 31 31 30 29 28 26 24 23 20 18 18 17 17 17 17 17 16 16 16 16 16 17 16 15 17 22 23 23 23 21 19 17 16 15 13 11 10 9 10 9